Location: Huesca
(42.1318°N, 0.4078°W)
Time: 14:08:35
(UTC+01:00)

ARIANE 6 FM1 Upper Stage - Visible Passes

Search period start: 16 January 2026 00:00
Search period end: 26 January 2026 00:00
Orbit: 522 x 610 km, 62.0° (Epoch: 16 January)

Date Brightness Start Highest point End Pass type
(mag) Time Alt. Az. Time Alt. Az. Time Alt. Az.
16 Jan 3.3 06:15:02 45° SSE 06:15:02 45° SSE 06:17:56 10° SSE visible
17 Jan 4.1 06:15:59 25° S 06:15:59 25° S 06:17:55 10° SSE visible
18 Jan 4.9 06:17:01 14° S 06:17:01 14° S 06:17:42 10° S visible
18 Jan 5.2 20:10:26 10° S 20:10:40 11° S 20:10:40 11° S visible
19 Jan 4.4 20:10:10 10° SSW 20:11:48 21° S 20:11:48 21° S visible
20 Jan 3.5 20:10:06 10° SSW 20:12:52 39° S 20:12:52 39° S visible
21 Jan 2.8 20:10:14 10° SW 20:13:50 68° SW 20:13:50 68° SW visible
22 Jan 4.5 18:33:37 10° SSE 18:35:55 15° ESE 18:38:12 10° E visible
22 Jan 3.0 20:10:30 10° SW 20:14:32 57° NW 20:14:44 56° NW visible
23 Jan 4.0 18:32:47 10° SSE 18:35:57 22° ESE 18:39:05 10° ENE visible
23 Jan 3.7 20:10:55 10° WSW 20:14:46 39° NW 20:15:32 35° NNW visible
24 Jan 3.5 18:32:20 10° S 18:36:01 32° ESE 18:39:38 10° NE visible
24 Jan 4.3 20:11:30 10° WSW 20:15:02 28° NW 20:16:14 24° NNW visible
25 Jan 2.9 18:32:09 10° SSW 18:36:07 49° ESE 18:40:01 10° NE visible
25 Jan 4.7 20:12:14 10° W 20:15:21 21° NW 20:16:52 17° N visible
